Volver al catálogo

DELTA 1 R/B

ActivoHEO
NORAD 738·ROCKET BODY·🇺🇸 United States

Lanzado Jan 21, 1964 desde Cape Canaveral Space Force Station

Loading…

Próximos Pases (próximas 24 horas)

TLE

ActualizadoSource: Space-Track

Época: Sep 14, 2026, 08:42 UTC

1 00738U 64003B   26257.36279974 -.00000024  00000-0  00000-0 0  9997
2 00738  46.4500 253.4655 2602338 113.7262 275.6555  7.39333515692073

Sigue DELTA 1 R/B en tiempo real con AllMySat

Download on the App Store